PulseSat

PulseSat

GSAT0104 (PRN E20)

Last updated on Jan. 16, 2019, 2:58 a.m. UTC

1 38858U 12055B   19015.38854828  .00000086  00000-0  00000+0 0  9990
2 38858  54.9221 176.0819 0000431 199.3391 160.6406  1.70473696 38919
UTC
Height (km)
Latitude
Longitude
Inclination
Orbital Period

Next 30 passes for location: Hong Kong

Rise time Rise Azimuth (degrees) Set time Set Azimuth (degrees) Duration Max altitude (degrees)

No matching passes for this satellites

PulseSat

PulseSat is the new satellites software and hardware trackering solution by Pulsely.
Satellite Two Line Element Set source: US Air Force Space Command

Download PulseSat for iOS
© 2017 Pulsely Limited